• en Belgique
  • Liste des pays
  • À 7 jours
  • Température de l'eau
  • Carte satellitaire
  • Carte météo
  • Widgets météo
  • user-avatar
    Se connecter

    Météo par heure à Bouillon

    Ce jour, 13 Novembre, Mardi

    Heure Température Précipitation Vent Pression Humidité
    00:00 +7°C° 0.3 mm 3 m/s 728 mmHg 96%
    01:00 +7°C° 0.1 mm 3 m/s 728 mmHg 95%
    02:00 +7°C° 0.1 mm 3 m/s 728 mmHg 95%
    03:00 +7°C° 0.1 mm 3 m/s 728 mmHg 94%
    04:00 +7°C° 0 mm 3 m/s 729 mmHg 95%
    05:00 +6°C° 0 mm 4 m/s 729 mmHg 95%
    06:00 +6°C° 0 mm 4 m/s 729 mmHg 95%
    07:00 +6°C° 0 mm 4 m/s 730 mmHg 94%
    08:00 +6°C° 0 mm 5 m/s 731 mmHg 93%
    09:00 +7°C° 0 mm 5 m/s 732 mmHg 92%
    10:00 +7°C° 0 mm 5 m/s 732 mmHg 91%
    11:00 +7°C° 0 mm 5 m/s 732 mmHg 89%
    12:00 +7°C° 0 mm 5 m/s 733 mmHg 88%
    13:00 +7°C° 0 mm 4 m/s 733 mmHg 88%
    14:00 +7°C° 0 mm 4 m/s 733 mmHg 88%
    15:00 +9°C° 0 mm 3 m/s 733 mmHg 88%
    16:00 +8°C° 0 mm 3 m/s 734 mmHg 89%
    17:00 +8°C° 0 mm 3 m/s 734 mmHg 91%
    18:00 +7°C° 0 mm 2 m/s 734 mmHg 93%
    19:00 +7°C° 0 mm 2 m/s 734 mmHg 94%
    20:00 +6°C° 0 mm 2 m/s 735 mmHg 95%
    21:00 +6°C° 0 mm 2 m/s 735 mmHg 96%
    22:00 +5°C° 0 mm 2 m/s 735 mmHg 96%
    23:00 +5°C° 0 mm 2 m/s 734 mmHg 96%

    Demain, 14 Novembre, Mercredi

    Heure Température Précipitation Vent Pression Humidité
    00:00 +5°C° 0 mm 2 m/s 734 mmHg 96%
    01:00 +4°C° 0 mm 2 m/s 734 mmHg 96%
    02:00 +4°C° 0 mm 2 m/s 734 mmHg 96%
    03:00 +4°C° 0 mm 2 m/s 734 mmHg 96%
    04:00 +4°C° 0 mm 2 m/s 734 mmHg 96%
    05:00 +4°C° 0 mm 2 m/s 734 mmHg 96%
    06:00 +4°C° 0 mm 2 m/s 733 mmHg 95%
    07:00 +5°C° 0 mm 2 m/s 734 mmHg 93%
    08:00 +5°C° 0 mm 2 m/s 734 mmHg 90%
    09:00 +5°C° 0 mm 3 m/s 734 mmHg 87%
    10:00 +7°C° 0 mm 3 m/s 734 mmHg 83%
    11:00 +9°C° 0 mm 3 m/s 733 mmHg 79%
    12:00 +10°C° 0 mm 3 m/s 733 mmHg 74%
    13:00 +10°C° 0 mm 3 m/s 733 mmHg 76%
    14:00 +9°C° 0 mm 3 m/s 732 mmHg 78%
    15:00 +9°C° 0 mm 2 m/s 732 mmHg 79%
    16:00 +8°C° 0 mm 2 m/s 732 mmHg 83%
    17:00 +5°C° 0 mm 3 m/s 732 mmHg 86%
    18:00 +4°C° 0 mm 3 m/s 732 mmHg 89%
    19:00 +4°C° 0 mm 3 m/s 732 mmHg 89%
    20:00 +5°C° 0 mm 2 m/s 732 mmHg 89%
    21:00 +5°C° 0 mm 2 m/s 731 mmHg 89%
    22:00 +5°C° 0 mm 2 m/s 731 mmHg 89%
    23:00 +5°C° 0 mm 2 m/s 731 mmHg 89%

    Après-demain, 15 Novembre, Jeudi

    Heure Température Précipitation Vent Pression Humidité
    00:00 +5°C° 0 mm 2 m/s 731 mmHg 89%
    01:00 +4°C° 0 mm 2 m/s 731 mmHg 89%
    02:00 +4°C° 0 mm 2 m/s 731 mmHg 89%
    03:00 +4°C° 0 mm 2 m/s 731 mmHg 89%
    04:00 +4°C° 0 mm 2 m/s 731 mmHg 89%
    05:00 +4°C° 0 mm 2 m/s 731 mmHg 90%
    06:00 +4°C° 0 mm 2 m/s 731 mmHg 90%
    07:00 +4°C° 0 mm 3 m/s 731 mmHg 86%
    08:00 +7°C° 0 mm 3 m/s 731 mmHg 83%
    09:00 +8°C° 0 mm 3 m/s 731 mmHg 80%
    10:00 +9°C° 0 mm 3 m/s 731 mmHg 77%
    11:00 +10°C° 0 mm 3 m/s 731 mmHg 75%
    12:00 +12°C° 0 mm 3 m/s 731 mmHg 72%
    13:00 +11°C° 0 mm 3 m/s 731 mmHg 75%
    14:00 +11°C° 0 mm 3 m/s 731 mmHg 78%
    15:00 +10°C° 0 mm 2 m/s 730 mmHg 81%
    16:00 +9°C° 0 mm 3 m/s 730 mmHg 85%
    17:00 +8°C° 0 mm 3 m/s 730 mmHg 88%
    18:00 +7°C° 0 mm 3 m/s 730 mmHg 91%
    19:00 +5°C° 0 mm 3 m/s 730 mmHg 91%
    20:00 +5°C° 0 mm 3 m/s 731 mmHg 91%
    21:00 +5°C° 0 mm 3 m/s 731 mmHg 91%
    22:00 +5°C° 0 mm 2 m/s 731 mmHg 91%
    23:00 +5°C° 0 mm 2 m/s 731 mmHg 90%

    16 Novembre, Vendredi

    Heure Température Précipitation Vent Pression Humidité
    00:00 +5°C° 0 mm 2 m/s 731 mmHg 90%
    01:00 +5°C° 0 mm 2 m/s 731 mmHg 89%
    02:00 +5°C° 0 mm 2 m/s 731 mmHg 88%
    03:00 +5°C° 0 mm 2 m/s 731 mmHg 87%
    04:00 +4°C° 0 mm 2 m/s 731 mmHg 86%
    05:00 +4°C° 0 mm 2 m/s 731 mmHg 86%
    06:00 +4°C° 0 mm 2 m/s 732 mmHg 85%
    07:00 +5°C° 0 mm 2 m/s 732 mmHg 81%
    08:00 +6°C° 0 mm 2 m/s 732 mmHg 76%
    09:00 +7°C° 0 mm 2 m/s 732 mmHg 72%
    10:00 +8°C° 0 mm 2 m/s 732 mmHg 68%
    11:00 +9°C° 0 mm 2 m/s 732 mmHg 65%
    12:00 +12°C° 0 mm 2 m/s 732 mmHg 61%
    13:00 +10°C° 0 mm 2 m/s 732 mmHg 65%
    14:00 +10°C° 0 mm 2 m/s 732 mmHg 69%
    15:00 +9°C° 0 mm 2 m/s 732 mmHg 73%
    16:00 +8°C° 0 mm 2 m/s 732 mmHg 75%
    17:00 +5°C° 0 mm 3 m/s 732 mmHg 77%
    18:00 +4°C° 0 mm 3 m/s 732 mmHg 79%
    19:00 +4°C° 0 mm 3 m/s 732 mmHg 76%
    20:00 +4°C° 0 mm 3 m/s 732 mmHg 73%
    21:00 +4°C° 0 mm 4 m/s 732 mmHg 70%
    22:00 +4°C° 0 mm 4 m/s 732 mmHg 68%
    23:00 +4°C° 0 mm 4 m/s 732 mmHg 66%

    17 Novembre, Samedi

    Heure Température Précipitation Vent Pression Humidité
    00:00 +4°C° 0 mm 4 m/s 732 mmHg 64%
    01:00 +3°C° 0 mm 4 m/s 732 mmHg 65%
    02:00 +3°C° 0 mm 4 m/s 732 mmHg 65%
    03:00 +3°C° 0 mm 4 m/s 731 mmHg 65%
    04:00 +3°C° 0 mm 4 m/s 731 mmHg 66%
    05:00 +3°C° 0 mm 4 m/s 731 mmHg 67%
    06:00 +1°C° 0 mm 4 m/s 731 mmHg 68%
    07:00 +2°C° 0 mm 5 m/s 732 mmHg 66%
    08:00 +3°C° 0 mm 5 m/s 732 mmHg 64%
    09:00 +3°C° 0 mm 5 m/s 732 mmHg 62%
    10:00 +6°C° 0 mm 5 m/s 732 mmHg 59%
    11:00 +7°C° 0 mm 5 m/s 732 mmHg 57%
    12:00 +8°C° 0 mm 5 m/s 732 mmHg 54%
    13:00 +7°C° 0 mm 5 m/s 731 mmHg 57%
    14:00 +7°C° 0 mm 4 m/s 731 mmHg 59%
    15:00 +6°C° 0 mm 4 m/s 731 mmHg 61%
    16:00 +5°C° 0 mm 4 m/s 731 mmHg 63%
    17:00 +3°C° 0 mm 5 m/s 731 mmHg 64%
    18:00 +2°C° 0 mm 5 m/s 731 mmHg 65%
    19:00 +2°C° 0 mm 5 m/s 731 mmHg 65%
    20:00 +2°C° 0 mm 5 m/s 731 mmHg 65%
    21:00 +2°C° 0 mm 5 m/s 731 mmHg 66%
    22:00 +2°C° 0 mm 5 m/s 731 mmHg 66%
    23:00 +2°C° 0 mm 5 m/s 731 mmHg 66%

    18 Novembre, Dimanche

    Heure Température Précipitation Vent Pression Humidité
    00:00 +1°C° 0 mm 5 m/s 731 mmHg 67%
    01:00 +1°C° 0 mm 5 m/s 731 mmHg 67%
    02:00 +1°C° 0 mm 5 m/s 730 mmHg 67%
    03:00 0°C° 0 mm 5 m/s 730 mmHg 67%
    04:00 0°C° 0 mm 5 m/s 730 mmHg 65%
    05:00 0°C° 0 mm 5 m/s 730 mmHg 63%
    06:00 0°C° 0 mm 5 m/s 730 mmHg 62%
    07:00 +1°C° 0 mm 6 m/s 730 mmHg 58%
    08:00 +1°C° 0 mm 6 m/s 731 mmHg 55%
    09:00 +2°C° 0 mm 6 m/s 731 mmHg 51%
    10:00 +3°C° 0 mm 6 m/s 731 mmHg 49%
    11:00 +5°C° 0 mm 6 m/s 731 mmHg 47%
    12:00 +7°C° 0 mm 6 m/s 730 mmHg 45%
    13:00 +5°C° 0 mm 6 m/s 730 mmHg 48%
    14:00 +6°C° 0 mm 5 m/s 730 mmHg 51%
    15:00 +5°C° 0 mm 5 m/s 729 mmHg 53%
    16:00 +3°C° 0 mm 5 m/s 729 mmHg 54%
    17:00 +2°C° 0 mm 5 m/s 729 mmHg 55%
    18:00 +1°C° 0 mm 5 m/s 729 mmHg 56%
    19:00 +1°C° 0 mm 5 m/s 729 mmHg 55%
    20:00 +1°C° 0 mm 5 m/s 729 mmHg 54%
    21:00 +1°C° 0 mm 5 m/s 729 mmHg 53%
    22:00 +1°C° 0 mm 5 m/s 729 mmHg 53%
    23:00 +1°C° 0 mm 5 m/s 729 mmHg 52%
    Voir plus